Location: Vanderbilt Beach
(26.2700°N, 81.7900°W)
Time: 21:31:06
(UTC-04:00)

Envisat - Pass Details

Date: 19 June 2021
Orbit: 764 x 766 km, 98.2° (Epoch: 02 August)

Event Time Altitude Azimuth Distance (km) Brightness Sun altitude
Rises 05:49:07 0° 31° (NNE) 3,230 7.5 -9.8°
Reaches altitude 10° 05:51:54 10° 46° (NE) 2,300 7.0 -9.3°
Maximum altitude 05:55:49 22° 97° (E) 1,603 5.4 -8.5°
Drops below altitude 10° 05:59:43 10° 148° (SSE) 2,291 5.5 -7.8°
Sets 06:02:29 0° 163° (SSE) 3,213 6.1 -7.2°
